Glencoe, MN

6:43 AM CST on November 18, 2017 (GMT -0600)
Glencoe Municipal

Weather History for KGYL - September, 2013

Change the Weather History Date:

Wednesday, September 11, 2013

  Actual Average (KHCD) Record (KHCD)
Temperature  
Mean Temperature 72 °F -  
Max Temperature 84 °F 76 °F 94 °F (2012)
Min Temperature 60 °F 51 °F 37 °F (1964)
Cooling Degree Days 7    
Growing Degree Days 22 (Base 50)    
Moisture  
Dew Point 52 °F    
Average Humidity 55    
Maximum Humidity 85    
Minimum Humidity 21    
Precipitation  
Precipitation 0.00 in - - ()
Sea Level Pressure  
Sea Level Pressure 30.04 in    
Wind  
Wind Speed 5 mph (West)    
Max Wind Speed 17 mph    
Max Gust Speed 24 mph    
Visibility 10 miles    
Events      
Averages and records for this station are not official NWS values.
T = Trace of Precipitation, MM = Missing Value Source: NWS Daily Summary

Daily Weather History Graph

Daily Weather History Graph

Search for Another Location

Airport or City:

Trip Planner

Search our weather history database for the weather conditions in past years. The results will help you decide how hot, cold, wet, or windy it might be!

Date:

Astronomy

Sep. 11, 2013 Rise Set
Actual Time 6:50 AM CDT 7:34 PM CDT
Civil Twilight 6:21 AM CDT 8:03 PM CDT
Nautical Twilight 5:46 AM CDT 8:38 PM CDT
Astronomical Twilight 5:09 AM CDT 9:14 PM CDT
Moon 1:35 PM CDT (9/11) 11:14 PM CDT (9/11)
Length of Visible Light 13h 42m
Length of Day
12h 43m
Waxing Crescent, 39% of the Moon is Illuminated
Sep 11
Waxing Crescent
Sep 12
First Quarter
Sep 19
Full
Sep 26
Last Quarter
Oct 4
New

Hourly Weather History & Observations

Time (CDT) Temp. Heat Index Dew Point Humidity Pressure Visibility Wind Dir Wind Speed Gust Speed Precip Events Conditions
12:14 AM 63.9 °F - 57.6 °F 80% 30.00 in 10.0 mi SSW 3.5 mph - N/A   Clear
12:33 AM 63.7 °F - 56.5 °F 77% 30.01 in 10.0 mi Calm Calm - N/A   Clear
12:54 AM 62.6 °F - 56.7 °F 81% 30.01 in 10.0 mi Calm Calm - N/A   Clear
1:14 AM 63.1 °F - 57.6 °F 82% 30.01 in 10.0 mi Calm Calm - N/A   Clear
1:33 AM 62.6 °F - 56.7 °F 81% 30.01 in 10.0 mi Calm Calm - N/A   Clear
1:54 AM 62.6 °F - 57.0 °F 82% 30.01 in 10.0 mi Calm Calm - N/A   Clear
2:13 AM 62.6 °F - 56.8 °F 81% 30.00 in 10.0 mi Calm Calm - N/A   Clear
2:34 AM 62.1 °F - 56.7 °F 82% 30.00 in 10.0 mi Calm Calm - N/A   Clear
2:54 AM 61.5 °F - 56.3 °F 83% 30.00 in 10.0 mi Calm Calm - N/A   Clear
3:13 AM 63.5 °F - 57.9 °F 82% 30.01 in 10.0 mi West 3.5 mph - N/A   Clear
3:34 AM 63.1 °F - 57.9 °F 83% 30.01 in 10.0 mi Calm Calm - N/A   Clear
3:54 AM 63.1 °F - 57.7 °F 83% 30.02 in 10.0 mi Calm Calm - N/A   Clear
4:13 AM 62.6 °F - 57.6 °F 84% 30.02 in 10.0 mi Calm Calm - N/A   Clear
4:34 AM 62.1 °F - 57.4 °F 85% 30.02 in 10.0 mi SSW 3.5 mph - N/A   Clear
4:54 AM 61.0 °F - 56.1 °F 84% 30.02 in 10.0 mi Calm Calm - N/A   Clear
5:13 AM 61.5 °F - 56.5 °F 83% 30.02 in 10.0 mi Calm Calm - N/A   Clear
5:34 AM 60.8 °F - 56.3 °F 85% 30.02 in 10.0 mi Calm Calm - N/A   Clear
5:53 AM 62.2 °F - 57.0 °F 83% 30.03 in 10.0 mi SW 3.5 mph - N/A   Clear
6:13 AM 63.7 °F - 57.4 °F 80% 30.03 in 10.0 mi SW 3.5 mph - N/A   Clear
6:34 AM 61.7 °F - 55.9 °F 81% 30.03 in 10.0 mi Calm Calm - N/A   Clear
6:54 AM 61.3 °F - 56.1 °F 83% 30.03 in 10.0 mi SW 3.5 mph - N/A   Clear
7:13 AM 60.8 °F - 55.6 °F 83% 30.03 in 10.0 mi SSW 3.5 mph - N/A   Clear
7:34 AM 61.5 °F - 56.1 °F 82% 30.03 in 10.0 mi SW 3.5 mph - N/A   Clear
7:54 AM 63.9 °F - 56.3 °F 76% 30.03 in 10.0 mi WSW 3.5 mph - N/A   Clear
8:14 AM 64.9 °F - 56.7 °F 74% 30.03 in 10.0 mi WSW 5.8 mph - N/A   Clear
8:33 AM 66.9 °F - 57.4 °F 71% 30.03 in 10.0 mi WSW 4.6 mph - N/A   Clear
8:54 AM 69.3 °F - 57.7 °F 67% 30.03 in 10.0 mi West 6.9 mph - N/A   Clear
9:13 AM 70.9 °F - 57.9 °F 63% 30.03 in 10.0 mi West 9.2 mph - N/A   Clear
9:34 AM 72.7 °F - 57.7 °F 59% 30.03 in 10.0 mi West 10.4 mph - N/A   Clear
9:54 AM 73.6 °F - 57.2 °F 56% 30.04 in 10.0 mi West 8.1 mph - N/A   Clear
10:14 AM 74.8 °F - 57.2 °F 54% 30.04 in 10.0 mi West 8.1 mph - N/A   Clear
10:34 AM 76.5 °F - 56.7 °F 50% 30.04 in 10.0 mi WNW 11.5 mph - N/A   Clear
10:53 AM 77.0 °F - 56.8 °F 50% 30.05 in 10.0 mi WNW 10.4 mph - N/A   Clear
11:13 AM 78.8 °F - 57.4 °F 48% 30.05 in 10.0 mi West 10.4 mph 17.3 mph N/A   Clear
11:34 AM 80.1 °F 80.3 °F 56.5 °F 44% 30.04 in 10.0 mi West 12.7 mph 18.4 mph N/A   Clear
11:53 AM 80.8 °F 80.8 °F 56.1 °F 43% 30.04 in 10.0 mi WNW 10.4 mph - N/A   Clear
12:14 PM 81.1 °F 80.9 °F 55.6 °F 41% 30.04 in 10.0 mi WNW 12.7 mph 20.7 mph N/A   Clear
12:34 PM 82.2 °F 81.8 °F 56.1 °F 41% 30.04 in 10.0 mi WNW 13.8 mph - N/A   Clear
12:54 PM 83.1 °F - 50.4 °F 32% 30.04 in 10.0 mi WNW 17.3 mph 23.0 mph N/A   Clear
1:13 PM 83.1 °F - 49.5 °F 31% 30.04 in 10.0 mi WNW 13.8 mph 24.2 mph N/A   Clear
1:33 PM 82.4 °F - 49.6 °F 32% 30.05 in 10.0 mi NW 15.0 mph 19.6 mph N/A   Scattered Clouds
1:53 PM 83.5 °F - 49.5 °F 31% 30.05 in 10.0 mi WNW 13.8 mph - N/A   Scattered Clouds
2:14 PM 82.8 °F - 47.7 °F 29% 30.05 in 10.0 mi WNW 12.7 mph 21.9 mph N/A   Clear
2:33 PM 83.7 °F - 45.7 °F 26% 30.05 in 10.0 mi WNW 12.7 mph 18.4 mph N/A   Clear
2:54 PM 83.3 °F - 44.4 °F 25% 30.04 in 10.0 mi NW 10.4 mph 16.1 mph N/A   Clear
3:14 PM 83.5 °F - 43.7 °F 25% 30.04 in 10.0 mi NNW 13.8 mph 18.4 mph N/A   Clear
3:34 PM 83.5 °F - 42.3 °F 23% 30.04 in 10.0 mi NW 8.1 mph 20.7 mph N/A   Clear
3:54 PM 83.8 °F - 43.0 °F 24% 30.04 in 10.0 mi NW 9.2 mph 16.1 mph N/A   Clear
4:13 PM 83.8 °F - 43.0 °F 24% 30.04 in 10.0 mi WNW 10.4 mph - N/A   Clear
4:33 PM 84.0 °F - 43.5 °F 24% 30.04 in 10.0 mi WNW 9.2 mph 16.1 mph N/A   Clear
4:54 PM 84.2 °F - 40.6 °F 21% 30.04 in 10.0 mi WNW 12.7 mph - N/A   Clear
5:13 PM 83.5 °F - 41.9 °F 23% 30.03 in 10.0 mi WNW 13.8 mph 17.3 mph N/A   Clear
5:34 PM 82.9 °F - 42.4 °F 24% 30.03 in 10.0 mi NW 9.2 mph - N/A   Clear
5:54 PM 82.8 °F - 44.2 °F 26% 30.03 in 10.0 mi WNW 8.1 mph - N/A   Clear
6:13 PM 81.9 °F - 44.1 °F 26% 30.03 in 10.0 mi WNW 4.6 mph - N/A   Clear
6:34 PM 81.5 °F - 45.1 °F 28% 30.03 in 10.0 mi West 5.8 mph - N/A   Clear
6:53 PM 80.1 °F - 47.1 °F 31% 30.03 in 10.0 mi Calm Calm - N/A   Clear
7:14 PM 78.4 °F - 48.9 °F 35% 30.02 in 10.0 mi Calm Calm - N/A   Clear
7:34 PM 75.2 °F - 51.4 °F 43% 30.02 in 10.0 mi WSW 3.5 mph - N/A   Clear
7:53 PM 73.0 °F - 52.7 °F 49% 30.03 in 10.0 mi Calm Calm - N/A   Clear
8:14 PM 70.9 °F - 53.6 °F 54% 30.03 in 10.0 mi Calm Calm - N/A   Clear
8:34 PM 69.1 °F - 53.4 °F 57% 30.04 in 10.0 mi Calm Calm - N/A   Clear
8:53 PM 69.3 °F - 52.7 °F 56% 30.06 in 10.0 mi West 4.6 mph - N/A   Clear
9:14 PM 70.9 °F - 50.9 °F 49% 30.07 in 10.0 mi WNW 6.9 mph - N/A   Clear
9:33 PM 70.3 °F - 50.4 °F 49% 30.07 in 10.0 mi WNW 9.2 mph - N/A   Clear
9:54 PM 69.1 °F - 49.5 °F 50% 30.08 in 10.0 mi WNW 9.2 mph - N/A   Clear
10:14 PM 68.7 °F - 48.7 °F 49% 30.09 in 10.0 mi WNW 9.2 mph - N/A   Clear
10:33 PM 68.0 °F - 48.2 °F 49% 30.09 in 10.0 mi NW 6.9 mph - N/A   Clear
10:54 PM 66.7 °F - 47.8 °F 51% 30.09 in 10.0 mi NW 6.9 mph - N/A   Clear
11:14 PM 65.3 °F - 47.8 °F 53% 30.09 in 10.0 mi WNW 6.9 mph - N/A   Clear
11:34 PM 64.0 °F - 47.5 °F 55% 30.09 in 10.0 mi WNW 5.8 mph - N/A   Clear
11:53 PM 63.5 °F - 47.3 °F 56% 30.09 in 10.0 mi WNW 6.9 mph - N/A   Clear